Change the Weather History Date:

Wednesday, October 17, 2012

  Actual Average Record
Temperature  
Mean Temperature 44 °F -  
Max Temperature 48 °F - - ()
Min Temperature 41 °F - - ()
Degree Days  
Heating Degree Days 20    
Moisture  
Dew Point 45 °F    
Average Humidity 97    
Maximum Humidity 100    
Minimum Humidity 93    
Precipitation  
Precipitation 0.24 in - - ()
Sea Level Pressure  
Sea Level Pressure 29.05 in    
Wind  
Wind Speed 10 mph ()    
Max Wind Speed 14 mph    
Max Gust Speed 23 mph    
Visibility 5.0 miles    
Events Fog , Rain    
T = Trace of Precipitation, MM = Missing Value Source: Averaged Metar Reports

Daily Weather History Graph

Daily Weather History Graph

Search for Another Location

Airport or City:

Trip Planner

Search our weather history database for the weather conditions in past years. The results will help you decide how hot, cold, wet, or windy it might be!

Date:

Astronomy

Oct. 17, 2012 Rise Set
Actual Time 8:07 AM IST 6:32 PM IST
Civil Twilight 7:31 AM IST 7:08 PM IST
Nautical Twilight 6:50 AM IST 7:49 PM IST
Astronomical Twilight 6:09 AM IST 8:30 PM IST
Moon 10:52 AM IST (10/17) 7:27 PM IST (10/17)
Length of Visible Light 11h 37m
Length of Day
10h 25m
Waxing Crescent, 6% of the Moon is Illuminated
Oct 17
Waxing Crescent
Oct 22
First Quarter
Oct 29
Full
Nov 7
Last Quarter
Nov 13
New

Hourly Weather History & Observations

Time (IST) Temp. Windchill Dew Point Humidity Pressure Visibility Wind Dir Wind Speed Gust Speed Precip Events Conditions
1:00 AM 43 °F - 42 °F 95% 29.31 in - East 13.4 mph - -  
6:00 AM 44.6 °F 38.8 °F 44.6 °F 100% 29.12 in 3.7 mi East 11.5 mph 23.0 mph N/A Rain Light Rain
6:30 AM 44.6 °F 38.1 °F 44.6 °F 100% 29.12 in 4.3 mi East 13.8 mph - N/A Rain Light Rain
7:00 AM 44 °F - 43 °F 93% 29.14 in 5 mi East 13.4 mph - - Rain Rain
7:00 AM 44.6 °F 38.4 °F 42.8 °F 93% 29.12 in 5.0 mi East 12.7 mph - N/A Rain Rain
7:30 AM 42.8 °F 36.2 °F 42.8 °F 100% 29.09 in 3.1 mi NE 12.7 mph - N/A Rain Rain
8:00 AM 42.8 °F 35.8 °F 42.8 °F 100% 29.09 in 3.7 mi NE 13.8 mph - N/A Rain Light Rain
8:30 AM 42.8 °F 36.6 °F 42.8 °F 100% 29.06 in 6.2 mi NE 11.5 mph - N/A Rain Light Rain
9:00 AM 42.8 °F 37.0 °F 42.8 °F 100% 29.06 in 6.2 mi NE 10.4 mph - N/A Rain Light Rain
9:30 AM 42.8 °F 36.6 °F 42.8 °F 100% 29.06 in 4.3 mi NNE 11.5 mph - N/A Rain Light Rain
10:00 AM 44.6 °F 38.8 °F 42.8 °F 93% 29.03 in 6.2 mi NE 11.5 mph - N/A Rain Light Rain
10:30 AM 44.6 °F 38.8 °F 42.8 °F 93% 29.03 in 6.2 mi NE 11.5 mph - N/A   Mostly Cloudy
11:00 AM 44.6 °F 39.2 °F 44.6 °F 100% 29.03 in 6.2 mi NNE 10.4 mph - N/A Rain Light Rain
11:30 AM 44.6 °F 38.8 °F 44.6 °F 100% 29.03 in 6.2 mi NE 11.5 mph - N/A   Mostly Cloudy
12:00 PM 44.6 °F 38.1 °F 42.8 °F 93% 29.03 in 6.2 mi NE 13.8 mph - N/A   Mostly Cloudy
12:30 PM 44.6 °F 38.4 °F 42.8 °F 93% 29.03 in 6.2 mi NE 12.7 mph - N/A   Mostly Cloudy
1:00 PM 45 °F - 44 °F 93% 29.05 in 6 mi NE 11.2 mph - - Rain Light Rain
1:00 PM 44.6 °F 38.8 °F 44.6 °F 100% 29.03 in 5.6 mi NE 11.5 mph - N/A Rain Light Rain
1:30 PM 46.4 °F 41.1 °F 44.6 °F 93% 29.00 in 6.2 mi NE 11.5 mph - N/A   Mostly Cloudy
2:00 PM 46.4 °F 41.1 °F 44.6 °F 93% 29.00 in 4.3 mi NE 11.5 mph - N/A   Mostly Cloudy
2:30 PM 46.4 °F 42.4 °F 46.4 °F 100% 29.00 in 1.6 mi NE 8.1 mph - N/A   Light Drizzle
3:00 PM 46.4 °F 42.4 °F 46.4 °F 100% 29.00 in 1.4 mi NE 8.1 mph - N/A   Light Drizzle
3:30 PM 46.4 °F 42.9 °F 46.4 °F 100% 29.00 in 0.3 mi NE 6.9 mph - N/A Fog , Rain Light Rain
4:00 PM 46.4 °F 43.5 °F 46.4 °F 100% 29.00 in 0.3 mi NE 5.8 mph - N/A Fog , Rain Light Rain
4:30 PM 48.2 °F - 48.2 °F 100% 29.00 in 4.3 mi ENE 4.6 mph - N/A   Overcast
5:00 PM 48.2 °F - 48.2 °F 100% 29.00 in 6.2 mi East 6.9 mph - N/A   Mostly Cloudy
5:30 PM 48.2 °F - 48.2 °F 100% 29.00 in 6.2 mi East 8.1 mph - N/A   Mostly Cloudy
6:00 PM 48.2 °F - 46.4 °F 93% 29.03 in 6.2 mi East 8.1 mph - N/A Rain Light Rain
7:00 PM 47 °F - 46 °F 95% 29.06 in 12 mi ENE 6.7 mph - - Rain Light Rain